Simultaneous Nadir Overpasses (SNOs) Predictions

Prediction of SNOs between NOAA-19 and TERRA Satellite Orbit:

Table of predicted SNOs for the next 14.0 days since TLE Epoch: 1/9/2021
Index Date (NOAA-19) Time (NOAA-19) Lat,Lon (NOAA-19) SZA (NOAA-19 ) Date (TERRA) Time (TERRA) Lat,Lon (TERRA) SZA (TERRA ) Distance(km) Time Diff (sec)
1 01/09/2021 14:35:57 79.98, -7.67 103.17 01/09/2021 14:36:55 79.97, -7.72 103.17 1.52 58
2 01/09/2021 15:26:52 -79.96, 159.87 76.84 01/09/2021 15:26:22 -79.96, 159.89 76.84 0.91 30
3 01/11/2021 21:00:10 79.97,-103.48 102.81 01/11/2021 21:00:05 79.96,-103.61 102.79 2.70 5
4 01/14/2021 02:33:19 -79.98, -6.92 77.59 01/14/2021 02:33:48 -79.98, -6.88 77.58 1.22 29
5 01/14/2021 03:24:23 79.96, 160.68 102.42 01/14/2021 03:23:14 79.98, 160.77 102.42 2.94 69
6 01/16/2021 08:06:37 79.98, 89.87 102.00 01/16/2021 08:07:30 79.99, 89.84 102.02 1.45 53
7 01/16/2021 08:57:32 -79.98,-102.85 78.01 01/16/2021 08:56:58 -79.96,-102.78 78.04 2.51 34
8 01/18/2021 14:30:50 79.98, -6.01 101.54 01/18/2021 14:30:40 79.98, -6.10 101.53 1.61 10
9 01/20/2021 20:03:58 -79.99, 90.63 78.95 01/20/2021 20:04:23 -80.00, 90.63 78.94 0.92 25
10 01/20/2021 20:55:03 79.97,-101.92 101.05 01/20/2021 20:53:50 79.96,-102.05 101.00 3.06 73
11 01/23/2021 01:37:17 80.00,-172.81 100.54 01/23/2021 01:38:05 80.00,-172.74 100.56 1.20 48



Historial Predications of SNOs between NOAA-19 and TERRA
